TimeCST,TemperatureF,Dew PointF,Humidity,Sea Level PressureIn,VisibilityMPH,Wind Direction,Wind SpeedMPH,Gust SpeedMPH,PrecipitationIn,Events,Conditions,WindDirDegrees,DateUTC
12:15 AM,31.8,28.9,89,30.16,10.0,Calm,Calm,-,N/A,,Clear,0,2013-11-20 06:15:00
12:35 AM,31.8,28.9,89,30.15,10.0,Calm,Calm,-,N/A,,Clear,0,2013-11-20 06:35:00
12:55 AM,31.8,29.3,90,30.15,10.0,Calm,Calm,-,N/A,,Clear,0,2013-11-20 06:55:00
1:15 AM,31.8,29.1,90,30.15,10.0,Calm,Calm,-,N/A,,Clear,0,2013-11-20 07:15:00
1:35 AM,31.3,28.8,90,30.15,10.0,Calm,Calm,-,N/A,,Clear,0,2013-11-20 07:35:00
1:55 AM,31.6,28.8,89,30.16,10.0,Calm,Calm,-,N/A,,Clear,0,2013-11-20 07:55:00
2:15 AM,34.9,28.6,78,30.16,10.0,Calm,Calm,-,N/A,,Clear,0,2013-11-20 08:15:00
2:35 AM,34.2,27.9,78,30.16,10.0,Calm,Calm,-,N/A,,Clear,0,2013-11-20 08:35:00
2:55 AM,34.9,28.0,76,30.17,10.0,Calm,Calm,-,N/A,,Clear,0,2013-11-20 08:55:00
3:15 AM,39.4,28.0,64,30.17,10.0,East,3.5,-,N/A,,Clear,90,2013-11-20 09:15:00
3:35 AM,40.5,28.0,61,30.17,10.0,East,4.6,-,N/A,,Clear,90,2013-11-20 09:35:00
3:55 AM,40.5,27.9,61,30.17,10.0,East,3.5,-,N/A,,Clear,90,2013-11-20 09:55:00
4:15 AM,40.3,28.0,62,30.19,10.0,East,4.6,-,N/A,,Clear,100,2013-11-20 10:15:00
4:35 AM,40.1,27.7,61,30.19,10.0,East,3.5,-,N/A,,Clear,90,2013-11-20 10:35:00
4:55 AM,40.1,27.5,61,30.20,10.0,East,3.5,-,N/A,,Clear,90,2013-11-20 10:55:00
5:15 AM,40.1,27.5,61,30.20,10.0,East,4.6,-,N/A,,Clear,90,2013-11-20 11:15:00
5:35 AM,40.1,27.7,61,30.21,10.0,East,3.5,-,N/A,,Clear,100,2013-11-20 11:35:00
5:55 AM,40.1,27.5,61,30.22,10.0,East,4.6,-,N/A,,Clear,100,2013-11-20 11:55:00
6:15 AM,40.1,27.5,61,30.22,10.0,East,3.5,-,N/A,,Clear,100,2013-11-20 12:15:00
6:35 AM,40.1,27.7,61,30.23,10.0,ESE,4.6,-,N/A,,Clear,110,2013-11-20 12:35:00
6:55 AM,40.5,27.7,60,30.23,10.0,East,4.6,-,N/A,,Clear,100,2013-11-20 12:55:00
7:15 AM,41.5,27.7,58,30.24,10.0,East,4.6,-,N/A,,Clear,100,2013-11-20 13:15:00
7:35 AM,42.6,28.0,56,30.25,10.0,East,4.6,-,N/A,,Clear,100,2013-11-20 13:35:00
7:55 AM,43.9,28.8,55,30.25,10.0,ESE,9.2,-,N/A,,Clear,110,2013-11-20 13:55:00
8:15 AM,45.3,29.3,54,30.25,10.0,ESE,5.8,-,N/A,,Clear,120,2013-11-20 14:15:00
8:35 AM,46.6,29.7,52,30.26,10.0,ESE,10.4,-,N/A,,Clear,110,2013-11-20 14:35:00
8:55 AM,47.8,29.8,50,30.26,10.0,ESE,8.1,-,N/A,,Clear,120,2013-11-20 14:55:00
9:15 AM,48.9,30.2,48,30.26,10.0,ESE,10.4,-,N/A,,Clear,120,2013-11-20 15:15:00
9:35 AM,50.4,30.2,46,30.26,10.0,ESE,11.5,19.6,N/A,,Clear,110,2013-11-20 15:35:00
9:55 AM,52.0,30.4,44,30.26,10.0,SE,5.8,16.1,N/A,,Clear,130,2013-11-20 15:55:00
10:15 AM,53.2,30.2,41,30.25,10.0,SE,10.4,16.1,N/A,,Clear,130,2013-11-20 16:15:00
10:35 AM,54.0,30.2,40,30.25,10.0,SE,10.4,17.3,N/A,,Clear,130,2013-11-20 16:35:00
10:55 AM,54.7,30.2,39,30.24,10.0,ESE,11.5,17.3,N/A,,Clear,110,2013-11-20 16:55:00
11:15 AM,55.6,31.1,39,30.23,10.0,SE,10.4,18.4,N/A,,Clear,130,2013-11-20 17:15:00
11:35 AM,56.3,31.6,39,30.22,10.0,ESE,9.2,16.1,N/A,,Clear,110,2013-11-20 17:35:00
11:55 AM,57.2,32.4,39,30.22,10.0,ESE,8.1,-,N/A,,Clear,120,2013-11-20 17:55:00
12:15 PM,57.7,32.5,39,30.21,10.0,ESE,5.8,-,N/A,,Clear,120,2013-11-20 18:15:00
12:35 PM,58.1,33.1,39,30.20,10.0,ESE,8.1,-,N/A,,Clear,120,2013-11-20 18:35:00
12:55 PM,58.5,33.4,39,30.19,10.0,East,5.8,-,N/A,,Clear,80,2013-11-20 18:55:00
1:15 PM,59.4,34.0,39,30.19,10.0,East,8.1,-,N/A,,Clear,90,2013-11-20 19:15:00
1:35 PM,59.4,34.3,39,30.18,10.0,East,10.4,-,N/A,,Clear,100,2013-11-20 19:35:00
1:55 PM,59.9,35.1,39,30.17,10.0,SE,5.8,-,N/A,,Clear,130,2013-11-20 19:55:00
2:15 PM,60.3,35.2,39,30.17,10.0,SE,4.6,-,N/A,,Clear,130,2013-11-20 20:15:00
2:35 PM,60.3,35.6,40,30.16,10.0,East,4.6,-,N/A,,Clear,100,2013-11-20 20:35:00
2:55 PM,60.4,36.3,41,30.16,10.0,ESE,3.5,-,N/A,,Clear,110,2013-11-20 20:55:00
3:15 PM,60.6,37.2,42,30.17,10.0,ESE,5.8,-,N/A,,Clear,120,2013-11-20 21:15:00
3:35 PM,59.9,37.2,43,30.17,10.0,East,3.5,-,N/A,,Clear,100,2013-11-20 21:35:00
3:55 PM,59.2,37.0,44,30.17,10.0,East,4.6,-,N/A,,Clear,90,2013-11-20 21:55:00
4:15 PM,58.5,37.2,45,30.17,10.0,East,3.5,-,N/A,,Clear,100,2013-11-20 22:15:00
4:35 PM,56.7,37.2,48,30.18,10.0,ESE,5.8,-,N/A,,Clear,110,2013-11-20 22:35:00
4:55 PM,55.4,37.2,50,30.18,10.0,ESE,3.5,-,N/A,,Clear,110,2013-11-20 22:55:00
5:15 PM,54.5,37.0,52,30.19,10.0,ESE,5.8,-,N/A,,Clear,110,2013-11-20 23:15:00
5:35 PM,54.0,36.9,52,30.19,10.0,Calm,Calm,-,N/A,,Clear,0,2013-11-20 23:35:00
5:55 PM,53.2,36.5,53,30.20,10.0,East,3.5,-,N/A,,Scattered Clouds,100,2013-11-20 23:55:00
6:15 PM,52.7,36.5,54,30.20,10.0,East,3.5,-,N/A,,Mostly Cloudy,100,2013-11-21 00:15:00
6:35 PM,52.0,36.5,56,30.20,10.0,East,4.6,-,N/A,,Scattered Clouds,100,2013-11-21 00:35:00
6:55 PM,51.4,36.1,56,30.20,10.0,ESE,6.9,-,N/A,,Scattered Clouds,110,2013-11-21 00:55:00
7:15 PM,51.1,35.8,56,30.21,10.0,ESE,6.9,-,N/A,,Clear,120,2013-11-21 01:15:00
7:35 PM,50.5,35.8,57,30.22,10.0,ESE,6.9,-,N/A,,Clear,120,2013-11-21 01:35:00
7:55 PM,50.2,36.0,58,30.22,10.0,ESE,5.8,-,N/A,,Clear,120,2013-11-21 01:55:00
8:15 PM,49.8,36.1,59,30.23,10.0,ESE,5.8,-,N/A,,Clear,120,2013-11-21 02:15:00
8:35 PM,49.5,36.1,60,30.23,10.0,ESE,6.9,-,N/A,,Clear,120,2013-11-21 02:35:00
8:55 PM,49.3,36.0,60,30.23,10.0,ESE,8.1,-,N/A,,Clear,120,2013-11-21 02:55:00
9:15 PM,48.9,36.0,61,30.24,10.0,ESE,5.8,-,N/A,,Clear,120,2013-11-21 03:15:00
9:35 PM,48.4,36.0,62,30.24,10.0,ESE,6.9,-,N/A,,Clear,120,2013-11-21 03:35:00
9:55 PM,48.6,36.0,62,30.24,10.0,ESE,5.8,-,N/A,,Mostly Cloudy,120,2013-11-21 03:55:00
10:15 PM,49.5,36.3,61,30.25,10.0,ESE,6.9,-,N/A,,Overcast,120,2013-11-21 04:15:00
10:35 PM,50.4,36.7,59,30.25,10.0,SE,6.9,-,N/A,,Overcast,130,2013-11-21 04:35:00
10:55 PM,50.9,37.2,59,30.26,10.0,SE,6.9,-,N/A,,Overcast,130,2013-11-21 04:55:00
11:15 PM,51.3,37.6,60,30.25,10.0,SE,6.9,-,N/A,,Overcast,130,2013-11-21 05:15:00
11:35 PM,51.6,37.9,60,30.26,10.0,SE,6.9,-,N/A,,Overcast,130,2013-11-21 05:35:00
11:55 PM,51.8,38.3,60,30.26,10.0,SE,5.8,-,N/A,,Overcast,130,2013-11-21 05:55:00